RH
44 57 51 35 34 34 36 33 32 32 30 31 31 30 27 24 23 24 26 26 25 24 23 22 21 20 19 19 19 20 18 18 17 17 17 17 16 18 24 25 23 30 37 38
52 66 35 43 44 50 46 41 36 33 32 34 36 36 32 29 30 29 28 28 27 25 24 24 22 21 22 22 21 20 19 19 18 17 16 16 16 16 17 18 22 31 30 32
67 45 55 58 55 57 54 48 41 37 34 33 37 44 41 39 36 34 33 32 30 29 28 27 25 24 22 21 20 20 20 21 19 18 18 18 19 19 19 18 25 27 31 33
81 43 62 72 70 63 57 47 50 45 45 43 40 55 52 47 42 39 36 34 32 30 28 27 25 25 24 24 22 20 19 19 20 20 20 19 19 18 18 18 19 25 27 29
75 61 68 75 74 71 64 65 59 56 57 55 55 58 50 51 50 45 40 38 34 32 30 29 28 28 27 26 25 24 21 19 19 20 20 21 21 21 20 20 21 22 28 28
63 71 78 89 87 91 77 78 74 69 65 83 59 58 67 62 50 48 43 42 37 34 32 32 31 31 30 30 28 26 26 24 21 22 22 23 24 23 24 22 23 24 24 30
62 81 85 89 92 89 98 91 97 98 96 75 55 64 71 62 56 51 45 42 40 36 36 36 37 37 36 35 32 30 29 29 28 25 25 25 27 27 28 26 26 27 26 29
84 86 92 94 93 97 97 98 92 82 94 88 56 76 79 65 59 53 48 44 42 40 38 38 39 39 40 40 39 39 39 37 34 33 33 32 35 37 33 30 31 30 27 27
92 93 91 80 87 89 88 97 91 80 70 90 97 96 83 70 63 58 51 47 43 43 43 42 42 42 43 44 43 43 42 41 40 39 39 40 41 42 39 36 36 31 29 31
97 96 95 92 74 67 90 94 90 98 93 82 97 96 95 93 73 64 58 53 49 44 42 44 46 47 47 49 50 52 51 48 44 43 43 42 42 41 37 37 38 34 36 37
94 98 93 87 96 85 80 95 97 89 97 86 93 96 96 93 88 73 64 58 52 49 46 45 44 44 44 46 50 51 52 52 52 50 46 43 40 38 36 36 41 44 47 44
81 98 97 98 98 97 87 96 98 96 98 95 84 95 90 94 89 79 74 67 60 57 54 51 47 45 43 44 50 53 52 52 50 51 48 47 42 42 40 41 44 49 51 47
79 91 98 99 90 81 94 92 96 96 97 98 95 97 95 94 89 84 82 74 70 65 61 57 55 51 51 49 49 51 52 54 56 54 51 48 51 49 46 44 45 46 48 45
76 84 84 94 98 94 96 95 91 92 97 97 98 95 87 86 85 83 76 74 76 74 70 63 61 60 56 53 52 52 51 52 55 58 65 51 56 56 52 52 51 51 49 48
73 97 92 97 93 84 91 96 96 96 98 96 98 95 98 91 89 82 82 83 84 83 80 76 71 66 63 56 54 54 55 56 57 56 66 67 62 64 56 54 52 51 49 48
76 97 90 92 82 82 86 87 88 94 98 98 96 97 98 92 90 89 90 86 86 88 84 81 76 71 66 64 59 60 59 61 71 74 72 64 72 68 63 60 56 54 51 50
80 91 88 91 75 70 85 97 96 96 97 98 97 97 97 96 92 92 95 91 86 82 81 80 79 76 73 72 74 67 67 63 65 72 74 80 70 63 66 64 63 61 59 55
78 87 91 87 71 92 95 89 96 96 97 97 96 97 98 98 97 98 97 96 90 84 82 79 78 78 77 79 78 80 79 67 66 68 73 73 73 72 73 67 67 69 65 65
73 78 72 75 83 87 89 88 94 96 96 94 97 97 97 97 96 99 98 97 95 89 86 82 78 78 79 80 83 84 83 83 70 69 73 79 80 81 71 73 81 74 72 71
67 71 71 73 83 90 88 81 87 89 96 93 95 93 95 95 96 95 98 97 94 93 86 81 81 78 77 78 79 82 84 87 88 75 72 75 87 88 83 82 77 78 78 77
81 81 86 83 86 85 81 74 76 83 90 86 88 88 86 89 94 95 97 94 90 86 82 82 80 80 81 79 78 80 80 84 88 88 79 72 76 92 92 84 85 85 84 85
87 91 92 88 90 93 78 68 70 76 74 75 73 76 77 79 79 79 83 86 87 81 78 76 75 76 73 78 79 80 81 79 81 84 90 81 72 80 90 90 90 91 87 81
87 92 94 93 96 93 89 85 86 84 78 75 70 65 65 68 70 70 71 69 73 75 72 72 68 68 70 71 70 69 71 74 75 78 81 88 83 72 82 87 86 81 79 76
94 93 94 97 85 88 91 88 86 83 82 80 73 68 65 59 59 59 58 58 60 64 69 68 66 66 64 60 61 64 63 61 66 73 76 79 85 80 74 83 77 71 71 70
82 83 89 93 86 88 86 82 79 76 75 74 74 72 67 61 56 51 49 52 54 55 55 60 63 63 60 57 55 54 59 59 60 63 68 74 81 86 80 76 82 80 71 69
73 76 79 83 81 80 76 77 76 74 73 70 69 68 68 65 63 58 52 50 51 50 52 54 57 58 56 56 57 55 53 50 50 57 59 62 70 83 83 82 80 80 74 68